Other Surface Observations
Issued by NWS

Home | Current Version | Previous Version | Text Only | Print | Product List | Glossary On
Versions: 1 2 3 4 5 6 7 8 9 10 11 12 13 14 15 16 17 18 19 20 21 22 23 24 25 26 27 28 29 30 31 32 33 34 35 36 37 38 39 40 41 42 43 44 45 46 47 48 49 50
000
SXUS52 KTAE 270618
OSOTAE
OSOTAE
North Florida/South Alabama/Southwest Georgia Weather Roundup
National Weather Service Tallahassee Florida
200 AM EDT WED MAY 27 2015

Note: "fair" indicates few or no clouds below 12,000 feet with no
significant weather and/or obstructions to visibility.

!FLZ017-115-028-034-025-270700
...North Florida...

CITY           SKY/WX    TMP DP  RH WIND       PRES   REMARKS
TALLAHASSEE    PTCLDY    72  68  87 CALM      30.17F
APALACHICOLA   CLEAR     72  67  84 NE6       30.16
PERRY          CLOUDY    72  68  89 E9        30.16F
CROSS CITY       N/A     72  69  90 E5        30.18F
JACKSONVILLE   CLOUDY    74  70  87 SE6       30.21F
$$

!FLZ112-006-005-002-011-270700
...Florida Panhandle...

CITY           SKY/WX    TMP DP  RH WIND       PRES   REMARKS
MARIANNA       CLOUDY    69  69 100 E5        30.17R
BONIFAY        FAIR      67  66  97 CALM      30.17S
PANAMA CITY NW FAIR      68  66  93 N6        30.15R
TYNDALL AFB    PTCLDY    70  68  94 E8        30.15S
TYND DRONE APT FAIR      71  68  92 E10G20    30.14F
DE FUNIAK SPR  FAIR      67  66  96 MISG      30.16S
EGLIN AFB      CLOUDY    70  67  89 NE2       30.13F
DESTIN         CLOUDY    74  68  81 E3        30.13F
HURLBURT       MOCLDY    71  67  88 NE3       30.12F
CRESTVIEW      CLOUDY    68  67  96 CALM      30.16F
PENSACOLA      MOCLDY    71  70  96 E3        30.13F
$$

!ALZ063-066-270700
...South Alabama...

CITY           SKY/WX    TMP DP  RH WIND       PRES   REMARKS
DOTHAN         CLOUDY    68  66  93 NE3       30.20F
OZARK CAIRNS   CLOUDY    67  67  97 NE2       30.16F
FT RUCKER HELI MOCLDY    68  66  93 CALM      30.16S
RUCKER HELI 3  CLOUDY    67  66  97 E1        30.18S
RUCKER HELI 2  FAIR      67  67 100 NE3         N/A
FLORALA APT    CLOUDY    67  66  97 CALM      30.17F
ANDALUSIA      CLOUDY    71  66  84 CALM      30.16F
TROY           PTCLDY    66  65  96 CALM      30.18S
EUFALA         MOCLDY    66  66 100 CALM      30.17F
MOBILE         CLOUDY    75  74  96 SE7       30.13F
$$

!GAZ120>161-270700
...Southwest and South Central Georgia...

CITY           SKY/WX    TMP DP  RH WIND       PRES   REMARKS
THOMASVILLE    FAIR      68  68 100 CALM      30.20F
BAINBRIDGE     PTCLDY    72  70  94 SE5       30.19F
MOODY AFB      CLOUDY    71  67  89 NW6       30.19R
VALDOSTA       LGT RAIN  72  69  90 SE6       30.18S
MOULTRIE       MOCLDY    70  68  94 CALM      30.20F
BLAKELY        MOCLDY    70  70 100 CALM      30.19S
ALBANY         MOCLDY    70  68  93 CALM      30.21F
TIFTON         FAIR      69  68  98 SE3       30.19F
FITZGERALD     MOCLDY   N/A N/A N/A SE3       30.22F
CORDELE        FAIR      71  70  98 CALM      30.21S
AMERICUS       FAIR      66  66 100 CALM      30.22S
HOMERVILLE     FAIR      72  70  94 SE7       30.18F
$$

!GMZ750-755-770-775-270700
...Coastal and Buoy Obs...

STATION/POSITION TIME  TEMP    WIND        PRES    VSBY  WAVE
                       AIR SEA DIR/SP/G                  HT/PER
                 (UTC) (F)     (DEG/KT/KT) (MB)    (MI)  (FT/S)
KEATON BEACH     0600   72      80/ 10/ 12 1021.2F
CEDAR KEY        0600   74      60/  4/  6 1022.9R
C TOWER          0600   77     100/ 26/ 27 1020.5F
APALACHICOLA BUO 0550   80 81  100/ 17/ 23 1020.5F         3/ 6
PANAMA CITY BUOY 0550   80 81   90/ 14/ 16 1020.8R         4/ 6
MOBILE BUOY      0550   78 79  100/  6/  6 1019.5F         3/ 7
ORANGE BCH AL BU 0550   78 80   90/ 12/ 14 1019.0F         3/ 7
$$



USA.gov is the U.S. government's official web portal to all federal, state and local government web resources and services.